******** Week 149 almanac for PRN-1 ******** ID: 1 Health: 0 Eccentricity: 0.01138162613 Time of Applicability(s): 147456 Orbital Inclination(rad): 0.9866576412 Rate of Right Ascen(r/s): -8.011762293e-09 SQRT(A) (m 1/2): 5153.621094 Right Ascen at Week(rad): -1.910513525 Argument of Perigee(rad): 0.8815820548 Mean Anom(rad): -2.708564035 Af0(s): 0.0003414144653 Af1(s/s): -1.091394e-11 week: 149 ******** Week 149 almanac for PRN-2 ******** ID: 2 Health: 0 Eccentricity: 0.02067756653 Time of Applicability(s): 147456 Orbital Inclination(rad): 0.9650201231 Rate of Right Ascen(r/s): -8.126052768e-09 SQRT(A) (m 1/2): 5153.640625 Right Ascen at Week(rad): -1.99979338 Argument of Perigee(rad): -1.442626915 Mean Anom(rad): -2.563213363 Af0(s): -0.0005140058838 Af1(s/s): 0 week: 149 ******** Week 149 almanac for PRN-3 ******** ID: 3 Health: 0 Eccentricity: 0.003892421722 Time of Applicability(s): 147456 Orbital Inclination(rad): 0.9725522085 Rate of Right Ascen(r/s): -7.886042771e-09 SQRT(A) (m 1/2): 5153.636719 Right Ascen at Week(rad): -0.8749645156 Argument of Perigee(rad): 0.9576421853 Mean Anom(rad): 2.420910804 Af0(s): -9.571663818e-05 Af1(s/s): -1.818989e-11 week: 149 ******** Week 149 almanac for PRN-4 ******** ID: 4 Health: 0 Eccentricity: 0.001696586609 Time of Applicability(s): 147456 Orbital Inclination(rad): 0.9615446979 Rate of Right Ascen(r/s): -7.588887536e-09 SQRT(A) (m 1/2): 5153.608887 Right Ascen at Week(rad): 0.205999089 Argument of Perigee(rad): -3.06324129 Mean Anom(rad): -0.9249503432 Af0(s): -0.000149981189 Af1(s/s): 3.637979e-12 week: 149 ******** Week 149 almanac for PRN-5 ******** ID: 5 Health: 0 Eccentricity: 0.005877017975 Time of Applicability(s): 147456 Orbital Inclination(rad): 0.9595193639 Rate of Right Ascen(r/s): -8.023191341e-09 SQRT(A) (m 1/2): 5153.619141 Right Ascen at Week(rad): -0.9153577202 Argument of Perigee(rad): 1.00816543 Mean Anom(rad): -0.05443422208 Af0(s): -5.652557373e-05 Af1(s/s): 0 week: 149 ******** Week 149 almanac for PRN-6 ******** ID: 6 Health: 0 Eccentricity: 0.002695083618 Time of Applicability(s): 147456 Orbital Inclination(rad): 0.9860404536 Rate of Right Ascen(r/s): -8.000333246e-09 SQRT(A) (m 1/2): 5153.620605 Right Ascen at Week(rad): -1.918786011 Argument of Perigee(rad): -0.9594795167 Mean Anom(rad): -2.379277232 Af0(s): 0.0001590252808 Af1(s/s): 1.091394e-11 week: 149 ******** Week 149 almanac for PRN-7 ******** ID: 7 Health: 0 Eccentricity: 0.01554107666 Time of Applicability(s): 147456 Orbital Inclination(rad): 0.9506450453 Rate of Right Ascen(r/s): -8.057478483e-09 SQRT(A) (m 1/2): 5153.626953 Right Ascen at Week(rad): 1.224838344 Argument of Perigee(rad): -2.290993192 Mean Anom(rad): 2.904719206 Af0(s): 0.0002449441528 Af1(s/s): 3.637979e-12 week: 149 ******** Week 149 almanac for PRN-8 ******** ID: 8 Health: 0 Eccentricity: 0.007290840149 Time of Applicability(s): 147456 Orbital Inclination(rad): 0.9650800442 Rate of Right Ascen(r/s): -7.668890868e-09 SQRT(A) (m 1/2): 5153.678223 Right Ascen at Week(rad): -2.990134897 Argument of Perigee(rad): 0.1039964822 Mean Anom(rad): -0.4439979311 Af0(s): -4.446678467e-05 Af1(s/s): 0 week: 149 ******** Week 149 almanac for PRN-9 ******** ID: 9 Health: 0 Eccentricity: 0.002256393433 Time of Applicability(s): 147456 Orbital Inclination(rad): 0.9545578948 Rate of Right Ascen(r/s): -7.680319916e-09 SQRT(A) (m 1/2): 5153.576172 Right Ascen at Week(rad): 0.1530718832 Argument of Perigee(rad): 1.869557811 Mean Anom(rad): -0.07976250692 Af0(s): -0.0002796131714 Af1(s/s): 0 week: 149 ******** Week 149 almanac for PRN-10 ******** ID: 10 Health: 0 Eccentricity: 0.007501602173 Time of Applicability(s): 147456 Orbital Inclination(rad): 0.9723784372 Rate of Right Ascen(r/s): -7.851755628e-09 SQRT(A) (m 1/2): 5153.635742 Right Ascen at Week(rad): -0.877753095 Argument of Perigee(rad): -2.514133842 Mean Anom(rad): 1.541801993 Af0(s): -0.0002532345703 Af1(s/s): -1.091394e-11 week: 149 ******** Week 149 almanac for PRN-11 ******** ID: 11 Health: 255 Eccentricity: 0.0002679824829 Time of Applicability(s): 147456 Orbital Inclination(rad): 0.9617604139 Rate of Right Ascen(r/s): -8.251772291e-09 SQRT(A) (m 1/2): 5153.717285 Right Ascen at Week(rad): -1.866708936 Argument of Perigee(rad): 2.872811582 Mean Anom(rad): -0.591961164 Af0(s): -7.009171143e-05 Af1(s/s): 1.091394e-11 week: 149 ******** Week 149 almanac for PRN-12 ******** ID: 12 Health: 0 Eccentricity: 0.008685588837 Time of Applicability(s): 147456 Orbital Inclination(rad): 0.9702452452 Rate of Right Ascen(r/s): -7.668890868e-09 SQRT(A) (m 1/2): 5153.55127 Right Ascen at Week(rad): 2.337895329 Argument of Perigee(rad): 1.246926769 Mean Anom(rad): 2.25190065 Af0(s): -0.0001349077026 Af1(s/s): -7.275958e-12 week: 149 ******** Week 149 almanac for PRN-13 ******** ID: 13 Health: 0 Eccentricity: 0.005806446075 Time of Applicability(s): 147456 Orbital Inclination(rad): 0.9689629331 Rate of Right Ascen(r/s): -7.543171346e-09 SQRT(A) (m 1/2): 5153.630371 Right Ascen at Week(rad): 0.3058389177 Argument of Perigee(rad): 0.9581608775 Mean Anom(rad): -1.013791275 Af0(s): 0.0002065067627 Af1(s/s): 7.275958e-12 week: 149 ******** Week 149 almanac for PRN-14 ******** ID: 14 Health: 0 Eccentricity: 0.001438140869 Time of Applicability(s): 147456 Orbital Inclination(rad): 0.9536231252 Rate of Right Ascen(r/s): -7.840326581e-09 SQRT(A) (m 1/2): 5153.593262 Right Ascen at Week(rad): 2.306617251 Argument of Perigee(rad): 3.01906519 Mean Anom(rad): 2.316495623 Af0(s): -6.632333984e-05 Af1(s/s): -3.637979e-12 week: 149 ******** Week 149 almanac for PRN-15 ******** ID: 15 Health: 0 Eccentricity: 0.01393604279 Time of Applicability(s): 147456 Orbital Inclination(rad): 0.9304216658 Rate of Right Ascen(r/s): -7.886042771e-09 SQRT(A) (m 1/2): 5153.688965 Right Ascen at Week(rad): 0.04709425883 Argument of Perigee(rad): 1.074870001 Mean Anom(rad): -1.439679544 Af0(s): -6.632333984e-05 Af1(s/s): 3.637979e-12 week: 149 ******** Week 149 almanac for PRN-16 ******** ID: 16 Health: 0 Eccentricity: 0.01275920868 Time of Applicability(s): 147456 Orbital Inclination(rad): 0.9702092925 Rate of Right Ascen(r/s): -7.634603726e-09 SQRT(A) (m 1/2): 5153.553711 Right Ascen at Week(rad): 2.356512822 Argument of Perigee(rad): 0.708201779 Mean Anom(rad): 0.3976515628 Af0(s): -0.0003708077637 Af1(s/s): -3.637979e-12 week: 149 ******** Week 149 almanac for PRN-17 ******** ID: 17 Health: 0 Eccentricity: 0.01361179352 Time of Applicability(s): 147456 Orbital Inclination(rad): 0.9801801676 Rate of Right Ascen(r/s): -7.543171346e-09 SQRT(A) (m 1/2): 5153.720215 Right Ascen at Week(rad): -2.908298745 Argument of Perigee(rad): -1.498497746 Mean Anom(rad): -0.5352038748 Af0(s): 0.0004544656128 Af1(s/s): 3.637979e-12 week: 149 ******** Week 149 almanac for PRN-18 ******** ID: 18 Health: 0 Eccentricity: 0.002094745636 Time of Applicability(s): 147456 Orbital Inclination(rad): 0.970448977 Rate of Right Ascen(r/s): -8.171768958e-09 SQRT(A) (m 1/2): 5153.568848 Right Ascen at Week(rad): -1.90268146 Argument of Perigee(rad): 3.107825229 Mean Anom(rad): -2.509111328 Af0(s): 0.0001899259277 Af1(s/s): -7.275958e-12 week: 149 ******** Week 149 almanac for PRN-19 ******** ID: 19 Health: 0 Eccentricity: 0.008972167969 Time of Applicability(s): 147456 Orbital Inclination(rad): 0.9789278161 Rate of Right Ascen(r/s): -7.588887536e-09 SQRT(A) (m 1/2): 5153.645508 Right Ascen at Week(rad): -2.863437671 Argument of Perigee(rad): 2.007996581 Mean Anom(rad): 1.876248379 Af0(s): 9.420928955e-05 Af1(s/s): 3.637979e-12 week: 149 ******** Week 149 almanac for PRN-20 ******** ID: 20 Health: 0 Eccentricity: 0.005158901215 Time of Applicability(s): 147456 Orbital Inclination(rad): 0.9416688609 Rate of Right Ascen(r/s): -8.240343243e-09 SQRT(A) (m 1/2): 5153.694824 Right Ascen at Week(rad): -1.029392114 Argument of Perigee(rad): 3.132101523 Mean Anom(rad): -1.691732512 Af0(s): 0.0004084914795 Af1(s/s): 0 week: 149 ******** Week 149 almanac for PRN-21 ******** ID: 21 Health: 0 Eccentricity: 0.02460241318 Time of Applicability(s): 147456 Orbital Inclination(rad): 0.9592736873 Rate of Right Ascen(r/s): -8.160339911e-09 SQRT(A) (m 1/2): 5153.529785 Right Ascen at Week(rad): -2.001420987 Argument of Perigee(rad): -1.005531148 Mean Anom(rad): -0.3488929947 Af0(s): 0.0001251099365 Af1(s/s): 0 week: 149 ******** Week 149 almanac for PRN-22 ******** ID: 22 Health: 0 Eccentricity: 0.0128903389 Time of Applicability(s): 147456 Orbital Inclination(rad): 0.9616825165 Rate of Right Ascen(r/s): -7.623174678e-09 SQRT(A) (m 1/2): 5153.611328 Right Ascen at Week(rad): 0.2542936429 Argument of Perigee(rad): -1.8727194 Mean Anom(rad): -0.6591623306 Af0(s): 0.0001688230469 Af1(s/s): 7.275958e-12 week: 149 ******** Week 149 almanac for PRN-23 ******** ID: 23 Health: 0 Eccentricity: 0.001971721649 Time of Applicability(s): 147456 Orbital Inclination(rad): 0.967410976 Rate of Right Ascen(r/s): -7.943188008e-09 SQRT(A) (m 1/2): 5153.656738 Right Ascen at Week(rad): -0.9026080029 Argument of Perigee(rad): 2.961406837 Mean Anom(rad): 2.861494729 Af0(s): 7.536743164e-07 Af1(s/s): -3.637979e-12 week: 149 ******** Week 149 almanac for PRN-24 ******** ID: 24 Health: 0 Eccentricity: 0.01233673096 Time of Applicability(s): 147456 Orbital Inclination(rad): 0.9341847124 Rate of Right Ascen(r/s): -8.240343243e-09 SQRT(A) (m 1/2): 5153.626953 Right Ascen at Week(rad): 1.142069669 Argument of Perigee(rad): 0.8072824819 Mean Anom(rad): -2.411952221 Af0(s): 0.0002170582031 Af1(s/s): -3.637979e-12 week: 149 ******** Week 149 almanac for PRN-25 ******** ID: 25 Health: 0 Eccentricity: 0.01050281525 Time of Applicability(s): 147456 Orbital Inclination(rad): 0.9576138721 Rate of Right Ascen(r/s): -7.851755628e-09 SQRT(A) (m 1/2): 5153.65625 Right Ascen at Week(rad): 2.261181684 Argument of Perigee(rad): 0.9811488679 Mean Anom(rad): 1.997963538 Af0(s): 0.0002253486206 Af1(s/s): 3.637979e-12 week: 149 ******** Week 149 almanac for PRN-26 ******** ID: 26 Health: 0 Eccentricity: 0.006876468658 Time of Applicability(s): 147456 Orbital Inclination(rad): 0.9384271281 Rate of Right Ascen(r/s): -8.023191341e-09 SQRT(A) (m 1/2): 5153.639648 Right Ascen at Week(rad): 2.214197904 Argument of Perigee(rad): 0.3697421755 Mean Anom(rad): 1.345171572 Af0(s): 0.0001447054687 Af1(s/s): 3.637979e-12 week: 149 ******** Week 149 almanac for PRN-27 ******** ID: 27 Health: 0 Eccentricity: 0.01022481918 Time of Applicability(s): 147456 Orbital Inclination(rad): 0.9737805915 Rate of Right Ascen(r/s): -7.600316584e-09 SQRT(A) (m 1/2): 5153.61084 Right Ascen at Week(rad): -2.970725321 Argument of Perigee(rad): 0.6382341289 Mean Anom(rad): -0.4872737163 Af0(s): 9.420928955e-05 Af1(s/s): 1.455192e-11 week: 149 ******** Week 149 almanac for PRN-29 ******** ID: 29 Health: 0 Eccentricity: 0.001833438873 Time of Applicability(s): 147456 Orbital Inclination(rad): 0.9821995095 Rate of Right Ascen(r/s): -7.531742299e-09 SQRT(A) (m 1/2): 5153.713867 Right Ascen at Week(rad): -2.895294363 Argument of Perigee(rad): 2.25701342 Mean Anom(rad): -0.3623404186 Af0(s): -0.0003790981811 Af1(s/s): -3.637979e-12 week: 149 ******** Week 149 almanac for PRN-30 ******** ID: 30 Health: 0 Eccentricity: 0.005507946014 Time of Applicability(s): 147456 Orbital Inclination(rad): 0.9358085749 Rate of Right Ascen(r/s): -8.228914196e-09 SQRT(A) (m 1/2): 5153.509766 Right Ascen at Week(rad): 1.237987286 Argument of Perigee(rad): -2.744132091 Mean Anom(rad): 2.94099171 Af0(s): -0.0004054767822 Af1(s/s): -3.637979e-12 week: 149 ******** Week 149 almanac for PRN-31 ******** ID: 31 Health: 0 Eccentricity: 0.01045465469 Time of Applicability(s): 147456 Orbital Inclination(rad): 0.9548694846 Rate of Right Ascen(r/s): -8.011762293e-09 SQRT(A) (m 1/2): 5153.623535 Right Ascen at Week(rad): 1.242935647 Argument of Perigee(rad): 0.3753219557 Mean Anom(rad): 2.452467889 Af0(s): -0.0001303856567 Af1(s/s): 0 week: 149 ******** Week 149 almanac for PRN-32 ******** ID: 32 Health: 0 Eccentricity: 0.005566596985 Time of Applicability(s): 147456 Orbital Inclination(rad): 0.9584108231 Rate of Right Ascen(r/s): -7.646032773e-09 SQRT(A) (m 1/2): 5153.729492 Right Ascen at Week(rad): 0.1642688944 Argument of Perigee(rad): -2.354620064 Mean Anom(rad): 0.1588115779 Af0(s): -5.351087646e-05 Af1(s/s): -7.275958e-12 week: 149